sat.trackr.live / text

‹ back to catalog

CO3D 2

NORAD 64902 · 2025-156D

PAYLOAD ACTIVE UNKNOWN

§ Identity

Operator
Country
FR
Launch date
2025-07-26
Launch site
FRGUI
Launch vehicle
Mass (kg)
RCS (m²)

Purposes: earth_obs

External: N2YO · Heavens-Above · Gunter

§ Orbital elements

Epoch: 2026-09-19T13:03:48.993984Z

Period
94.72 min
Inclination
97.4341°
Eccentricity
0.0001586
Mean motion
15.20195830 rev/d
Perigee alt
504.2 km
Apogee alt
506.3 km
Semi-major
6,883.4 km
B*
6.0570e-5
RAAN
339.7797°
Arg perigee
97.8936°
Mean anomaly
262.2479°
Rev number
6,386

§ Raw data

CO3D 21 64902U 25156D   26262.54431706  .00001244  00000+0  60570-4 0  99902 64902  97.4341 339.7797 0001586  97.8936 262.2479 15.20195830 63867

JSON: /api/v1/satellites/64902 · /tle

For live sub-satellite position, see the globe view (requires WebGL).

§ Visibility from observer

Set your observer location to see the next 7 days of passes ≥ 10°. The values pass through the URL so the page stays shareable.

No JS? Fill the form by hand. The geolocation button needs JavaScript.